User: anonymous   Login
Location: Canet
(43.3261°N, 5.3723°E)
Time: 08:22:44
(UTC+00:00)
Language:

Cosmos 1937 Rocket - Orbit

View from above orbital plane
View from above orbital plane
View from above satellite
View from above satellite

Ground track
Ground track

The orbit data is extracted from the following two-line orbital elements,

1 19039U 88029B   21101.87132602 -.00000042  00000-0 -51987-5 0  9996
2 19039  74.0469 250.8507 0022752  77.3707 282.9990 14.38505412731092
Epoch (UTC): 11 April 2021 20:54:42
Eccentricity: 0.0022752
inclination: 74.0469°
perigee height: 747 km
apogee height: 779 km
right ascension of ascending node: 250.8507°
argument of perigee: 77.3707°
revolutions per day: 14.38505412
mean anomaly at epoch: 282.9990°
orbit number at epoch: 73109

The dashed part of the orbit path shows where the satellite is in the earth's shadow,  

DLR